OPS 4682 DEB, 38363

Orbit data source: Space-Track

OPS 4682 DEB, 38363 is space debris in LEO originally from a launch on Sat, 03 Apr 1965 UTC launched from the Air Force Western Test Range (AFWTR). Debris objects in space refer to the collection of defunct objects orbiting the Earth. Examples of debris include non-operational satellites, rocket bodies, and fragments generated from explosions, collisions, or faulty payload assembly.

Loading next visibility...
Identifier
38363, 1965-027BQ
Orbit
LEO
Country
Flag of USUS
Related business
Manufacturer
Unknown
Mission
Spacecraft
Bus & Motor
Unknown
Mass
Unknown
Launch date (UTC)
1965-04-03 (61 years ago)
Launch vehicle
Unknown
Launch site
Air Force Western Test Range (AFWTR)
Object type
Payload
Rocket body
Debris
Shape & HBR
Unknown shape, 0.1 m
Radar Cross Section
Small (<0.1 m²)

Expand to show TLE details & history
Last TLE update: 21 hours ago

TLE from 21 hours ago
0 OPS 4682 DEB
1 38363U 65027BQ  26103.49291464  .00001074  00000-0  34734-2 0  9999
2 38363  90.2462   8.1525 0032270  18.5717 341.6576 13.01258839543747
Epoch: 2026-04-13T11:49Z
TLE epoch observation values (Epoch: 2026-04-13T11:49:47.824Z)
Latitude
-0.00002°
Longitude
-10.9795°
Altitude
1,236.66 km
Speed
7.247 km/s
True Right ascension
00h 32m 36s
True Declination
0° 00' 00"
Sunlit
Object was in daylight at epoch
Visualization orbit readout
Latitude
Unknown
Longitude
Unknown
Altitude
Unknown
Speed
Unknown
Apparent Right ascension
Unknown
Apparent Declination
Unknown
Sunlit
N/A
Visualization observer readout
Local Sidereal Time
15:46:36
Azimuth
Unknown
Elevation
Unknown
Doppler factor
Unknown
Orbital elements
Apogee altitude
1,278.913 km
Perigee altitude
1,229.654 km
Semi-major axis
7,632.42 km
Eccentricity
0.00323
Inclination
90.2462°
RAAN
8.1525°
Arg. of periapsis
18.5717°
True anomaly
341.54078°
Mean anomaly
341.6576°
Eccentric anomaly
341.59924°
Mean motion
3.25499 °/min
Orbital period
110.6 mins
BSTAR
0.0034734
Loading maneuver chart data...
Computing Atmospheric mass density...
Loading historical data...
Loading historical data...
Loading historical data...
Loading historical data...
Loading historical data...
Loading historical data...
Loading historical data...

Documentation

Showing up to 5 results
|